,,Stat5,,Stat1,,Stat2,,Stat3,,Stat4,,Wind1,,Wind1,
time,status,PA1M_AVG,status,PR1M_SUM,status,RH1M_AVG,status,SR1M_AVG,status,TA1M_AVG,status,W1dAve1m,status,W1sAve1m,
2002-12-31, 00:00:00,VALID,920.066,VALID,0,VALID,94.9965,VALID,0.0679233,VALID,19.0345,VALID,54,VALID,0.384079,
2002-12-31, 00:01:00,VALID,920.056,VALID,0,VALID,94.4052,VALID,0.0169808,VALID,19.0437,VALID,70,VALID,0.434679,
2002-12-31, 00:02:00,VALID,920.054,VALID,0,VALID,94.0771,VALID,0,VALID,19.0405,VALID,83,VALID,0.503084,
2002-12-31, 00:03:00,VALID,920.045,VALID,0,VALID,94.5387,VALID,0.0169808,VALID,19.0405,VALID,95,VALID,0.636218,
2002-12-31, 00:04:00,VALID,920.041,VALID,0,VALID,94.793,VALID,0.0169808,VALID,19.0855,VALID,93,VALID,0.658784,
2002-12-31, 00:05:00,VALID,920.048,VALID,0,VALID,94.3276,VALID,0.0169808,VALID,19.1471,VALID,90,VALID,0.399639,
2002-12-31, 00:06:00,VALID,920.057,VALID,0,VALID,93.7173,VALID,0.0509425,VALID,19.1503,VALID,90,VALID,0.112981,
2002-12-31, 00:07:00,VALID,920.058,VALID,0,VALID,93.8063,VALID,0,VALID,19.1637,VALID,90,VALID,0.282484,
2002-12-31, 00:08:00,VALID,920.045,VALID,0,VALID,93.7262,VALID,-0.101885,VALID,19.1838,VALID,90,VALID,0.26912,
2002-12-31, 00:09:00,VALID,920.023,VALID,0,VALID,92.8589,VALID,-0.101885,VALID,19.1649,VALID,90,VALID,0.0408654,
2002-12-31, 00:10:00,VALID,920.004,VALID,0,VALID,92.6733,VALID,-0.135847,VALID,19.0909,VALID,90,VALID,0.212776,
2002-12-31, 00:11:00,VALID,919.979,VALID,0,VALID,92.4317,VALID,-0.101885,VALID,19.0324,VALID,90,VALID,0.177148,
2002-12-31, 00:12:00,VALID,919.984,VALID,0,VALID,93.2913,VALID,-0.101885,VALID,18.9708,VALID,90,VALID,0.0450721,
2002-12-31, 00:13:00,VALID,920.009,VALID,0,VALID,94.0148,VALID,-0.101885,VALID,18.971,VALID,75,VALID,0.162007,
2002-12-31, 00:14:00,VALID,920.008,VALID,0,VALID,94.2488,VALID,-0.118866,VALID,18.9586,VALID,64,VALID,0.115748,
2002-12-31, 00:15:00,VALID,920.011,VALID,0,VALID,94.3645,VALID,-0.101885,VALID,18.942,VALID,64,VALID,0.0132212,
2002-12-31, 00:16:00,VALID,920.034,VALID,0,VALID,94.6544,VALID,-0.0849042,VALID,18.9579,VALID,64,VALID,0,
2002-12-31, 00:17:00,VALID,920.052,VALID,0,VALID,94.3136,VALID,-0.101885,VALID,18.9288,VALID,64,VALID,0,
2002-12-31, 00:18:00,VALID,920.061,VALID,0,VALID,94.6252,VALID,-0.101885,VALID,18.942,VALID,64,VALID,0,
2002-12-31, 00:19:00,VALID,920.073,VALID,0,VALID,94.6608,VALID,-0.101885,VALID,18.9484,VALID,64,VALID,0,
2002-12-31, 00:20:00,VALID,920.065,VALID,0,VALID,94.7091,VALID,-0.0679233,VALID,18.9618,VALID,55,VALID,0.0675676,
2002-12-31, 00:21:00,VALID,920.057,VALID,0,VALID,94.4484,VALID,-0.101885,VALID,18.9708,VALID,42,VALID,0,
2002-12-31, 00:22:00,VALID,920.054,VALID,0,VALID,94.2462,VALID,-0.0509425,VALID,18.9669,VALID,42,VALID,0,
2002-12-31, 00:23:00,VALID,920.074,VALID,0,VALID,94.47,VALID,0,VALID,18.9922,VALID,1,VALID,0.238511,
2002-12-31, 00:24:00,VALID,920.064,VALID,0,VALID,94.7816,VALID,0.0169808,VALID,19.0857,VALID,240,VALID,0.222862,
2002-12-31, 00:25:00,VALID,920.042,VALID,0,VALID,94.2424,VALID,0,VALID,19.1339,VALID,240,VALID,0.159455,
2002-12-31, 00:26:00,VALID,920.01,VALID,0,VALID,94.1966,VALID,0.0169808,VALID,19.1667,VALID,240,VALID,0.175481,
2002-12-31, 00:27:00,VALID,919.98,VALID,0,VALID,94.2755,VALID,0,VALID,19.2184,VALID,272,VALID,0.22389,
2002-12-31, 00:28:00,VALID,919.965,VALID,0,VALID,94.1394,VALID,0.0169808,VALID,19.2577,VALID,273,VALID,0.0186738,
2002-12-31, 00:29:00,VALID,919.934,VALID,0,VALID,93.9423,VALID,0,VALID,19.2699,VALID,273,VALID,0.0102163,
2002-12-31, 00:30:00,VALID,919.92,VALID,0,VALID,93.6308,VALID,0,VALID,19.2674,VALID,273,VALID,0,
2002-12-31, 00:31:00,VALID,919.933,VALID,0,VALID,93.6346,VALID,0,VALID,19.2609,VALID,273,VALID,0,
2002-12-31, 00:32:00,VALID,919.956,VALID,0,VALID,93.7185,VALID,-0.0169808,VALID,19.2537,VALID,273,VALID,0,
2002-12-31, 00:33:00,VALID,919.977,VALID,0,VALID,92.6453,VALID,0.0169808,VALID,19.2053,VALID,273,VALID,0,
2002-12-31, 00:34:00,VALID,919.989,VALID,0,VALID,92.1824,VALID,0,VALID,19.1021,VALID,273,VALID,0,
2002-12-31, 00:35:00,VALID,919.983,VALID,0,VALID,93.0471,VALID,0,VALID,19.08,VALID,273,VALID,0,
2002-12-31, 00:36:00,VALID,919.985,VALID,0,VALID,93.454,VALID,0,VALID,19.0442,VALID,273,VALID,0.00111607,
2002-12-31, 00:37:00,VALID,919.988,VALID,0,VALID,93.2735,VALID,-0.0509425,VALID,18.9706,VALID,273,VALID,0.0849359,
2002-12-31, 00:38:00,VALID,919.979,VALID,0,VALID,93.8025,VALID,-0.101885,VALID,18.9387,VALID,273,VALID,0.0446135,
2002-12-31, 00:39:00,VALID,919.945,VALID,0,VALID,94.0822,VALID,-0.101885,VALID,18.9166,VALID,273,VALID,0,
2002-12-31, 00:40:00,VALID,919.916,VALID,0,VALID,94.3454,VALID,-0.101885,VALID,18.8965,VALID,273,VALID,0,
2002-12-31, 00:41:00,VALID,919.89,VALID,0,VALID,94.086,VALID,-0.101885,VALID,18.8554,VALID,273,VALID,0,
2002-12-31, 00:42:00,VALID,919.878,VALID,0,VALID,94.1801,VALID,-0.101885,VALID,18.8003,VALID,273,VALID,0,
2002-12-31, 00:43:00,VALID,919.866,VALID,0,VALID,94.7816,VALID,-0.135847,VALID,18.7866,VALID,273,VALID,0,
2002-12-31, 00:44:00,VALID,919.84,VALID,0,VALID,95.0346,VALID,-0.101885,VALID,18.7963,VALID,302,VALID,0.139022,
2002-12-31, 00:45:00,VALID,919.836,VALID,0,VALID,95.1694,VALID,-0.118866,VALID,18.8062,VALID,349,VALID,0.324023,
2002-12-31, 00:46:00,VALID,919.832,VALID,0,VALID,95.0245,VALID,-0.101885,VALID,18.7966,VALID,15,VALID,0.15815,
2002-12-31, 00:47:00,VALID,919.829,VALID,0,VALID,95.289,VALID,-0.101885,VALID,18.8097,VALID,15,VALID,0.130912,
2002-12-31, 00:48:00,VALID,919.8,VALID,0,VALID,95.4136,VALID,-0.101885,VALID,18.8222,VALID,18,VALID,0.0529297,
2002-12-31, 00:49:00,VALID,919.782,VALID,0,VALID,95.4148,VALID,-0.101885,VALID,18.842,VALID,36,VALID,0.021875,
2002-12-31, 00:50:00,VALID,919.764,VALID,0,VALID,95.4326,VALID,-0.101885,VALID,18.8485,VALID,36,VALID,0.000976563,
2002-12-31, 00:51:00,VALID,919.759,VALID,0,VALID,95.4746,VALID,-0.101885,VALID,18.855,VALID,36,VALID,0.0502804,
2002-12-31, 00:52:00,VALID,919.76,VALID,0,VALID,95.4288,VALID,-0.0849042,VALID,18.8577,VALID,36,VALID,0,
2002-12-31, 00:53:00,VALID,919.74,VALID,0,VALID,95.4911,VALID,0,VALID,18.8535,VALID,36,VALID,0.0384457,
2002-12-31, 00:54:00,VALID,919.713,VALID,0,VALID,95.598,VALID,0,VALID,18.8598,VALID,8,VALID,0.186899,
2002-12-31, 00:55:00,VALID,919.703,VALID,0,VALID,95.2165,VALID,0,VALID,18.8371,VALID,339,VALID,0.0712891,
2002-12-31, 00:56:00,VALID,919.7,VALID,0,VALID,95.411,VALID,0.0169808,VALID,18.8568,VALID,339,VALID,0.0462582,
2002-12-31, 00:57:00,VALID,919.686,VALID,0,VALID,95.4174,VALID,0,VALID,18.8697,VALID,339,VALID,0,
2002-12-31, 00:58:00,VALID,919.675,VALID,0,VALID,95.1109,VALID,-0.0169808,VALID,18.8595,VALID,339,VALID,0.000801282,
2002-12-31, 00:59:00,VALID,919.662,VALID,0,VALID,94.8642,VALID,0,VALID,18.8244,VALID,339,VALID,0.000211149,
2002-12-31, 01:00:00,VALID,919.652,VALID,0,VALID,95.4047,VALID,0.0169808,VALID,18.8632,VALID,344,VALID,0.124789,
2002-12-31, 01:01:00,VALID,919.638,VALID,0,VALID,95.5738,VALID,0,VALID,18.9184,VALID,8,VALID,0.192578,
2002-12-31, 01:02:00,VALID,919.638,VALID,0,VALID,95.6501,VALID,0,VALID,18.9731,VALID,356,VALID,0.294118,
2002-12-31, 01:03:00,VALID,919.636,VALID,0,VALID,95.5484,VALID,0,VALID,19.0119,VALID,354,VALID,0.110814,
2002-12-31, 01:04:00,VALID,919.639,VALID,0,VALID,95.289,VALID,0,VALID,19.031,VALID,354,VALID,0.0010016,
2002-12-31, 01:05:00,VALID,919.634,VALID,0,VALID,95.2661,VALID,0,VALID,19.0472,VALID,354,VALID,0,
2002-12-31, 01:06:00,VALID,919.618,VALID,0,VALID,95.0982,VALID,-0.0339617,VALID,19.0603,VALID,354,VALID,0,
2002-12-31, 01:07:00,VALID,919.607,VALID,0,VALID,95.0995,VALID,-0.0339617,VALID,19.0611,VALID,354,VALID,0,
2002-12-31, 01:08:00,VALID,919.608,VALID,0,VALID,95.0563,VALID,-0.101885,VALID,19.0812,VALID,354,VALID,0,
2002-12-31, 01:09:00,VALID,919.612,VALID,0,VALID,94.985,VALID,-0.0849042,VALID,19.0745,VALID,354,VALID,0,
2002-12-31, 01:10:00,VALID,919.605,VALID,0,VALID,94.6201,VALID,-0.101885,VALID,19.0618,VALID,354,VALID,0,
2002-12-31, 01:11:00,VALID,919.587,VALID,0,VALID,94.5387,VALID,-0.0849042,VALID,19.0389,VALID,354,VALID,0,
2002-12-31, 01:12:00,VALID,919.563,VALID,0,VALID,94.7345,VALID,-0.101885,VALID,19.0426,VALID,354,VALID,0,
2002-12-31, 01:13:00,VALID,919.541,VALID,0,VALID,94.8248,VALID,-0.101885,VALID,19.0523,VALID,354,VALID,0,
2002-12-31, 01:14:00,VALID,919.531,VALID,0,VALID,94.8108,VALID,-0.101885,VALID,19.0488,VALID,354,VALID,0,
2002-12-31, 01:15:00,VALID,919.5,VALID,0,VALID,94.6137,VALID,-0.101885,VALID,19.0228,VALID,354,VALID,0.0473214,
2002-12-31, 01:16:00,VALID,919.479,VALID,0,VALID,94.7295,VALID,-0.101885,VALID,18.9842,VALID,354,VALID,0.147436,
2002-12-31, 01:17:00,VALID,919.458,VALID,0,VALID,95.0346,VALID,-0.101885,VALID,18.971,VALID,354,VALID,0.10588,
2002-12-31, 01:18:00,VALID,919.445,VALID,0,VALID,95.294,VALID,-0.101885,VALID,18.9616,VALID,354,VALID,0.115451,
2002-12-31, 01:19:00,VALID,919.433,VALID,0,VALID,95.3144,VALID,-0.101885,VALID,18.9743,VALID,354,VALID,0.0180921,
2002-12-31, 01:20:00,VALID,919.41,VALID,0,VALID,95.2317,VALID,-0.101885,VALID,18.9609,VALID,354,VALID,0,
2002-12-31, 01:21:00,VALID,919.401,VALID,0,VALID,95.1249,VALID,-0.0849042,VALID,18.9678,VALID,354,VALID,0,
2002-12-31, 01:22:00,VALID,919.384,VALID,0,VALID,95.1707,VALID,-0.0509425,VALID,18.9872,VALID,354,VALID,0,
2002-12-31, 01:23:00,VALID,919.358,VALID,0,VALID,94.7981,VALID,0,VALID,18.9632,VALID,354,VALID,0,
2002-12-31, 01:24:00,VALID,919.335,VALID,0,VALID,94.7409,VALID,0,VALID,18.9371,VALID,354,VALID,0,
2002-12-31, 01:25:00,VALID,919.302,VALID,0,VALID,94.6404,VALID,0,VALID,18.9048,VALID,354,VALID,0,
2002-12-31, 01:26:00,VALID,919.285,VALID,0,VALID,94.7651,VALID,0.0169808,VALID,18.8884,VALID,354,VALID,0,
2002-12-31, 01:27:00,VALID,919.245,VALID,0,VALID,94.4039,VALID,0.0169808,VALID,18.8729,VALID,354,VALID,0.0277344,
2002-12-31, 01:28:00,VALID,919.223,VALID,0,VALID,94.128,VALID,0,VALID,18.776,VALID,354,VALID,0.118527,
2002-12-31, 01:29:00,VALID,919.186,VALID,0,VALID,94.4116,VALID,0,VALID,18.6756,VALID,354,VALID,0.133594,
2002-12-31, 01:30:00,VALID,919.152,VALID,0,VALID,94.8477,VALID,-0.0169808,VALID,18.6276,VALID,354,VALID,0.0945513,
2002-12-31, 01:31:00,VALID,919.139,VALID,0,VALID,95.2826,VALID,0,VALID,18.611,VALID,354,VALID,0,
2002-12-31, 01:32:00,VALID,919.118,VALID,0,VALID,95.645,VALID,0,VALID,18.6207,VALID,354,VALID,0,
2002-12-31, 01:33:00,VALID,919.105,VALID,0,VALID,95.8815,VALID,0,VALID,18.6276,VALID,354,VALID,0,
2002-12-31, 01:34:00,VALID,919.086,VALID,0,VALID,96.0061,VALID,-0.0169808,VALID,18.6375,VALID,354,VALID,0,
2002-12-31, 01:35:00,VALID,919.091,VALID,0,VALID,96.1435,VALID,0,VALID,18.6601,VALID,354,VALID,0,
2002-12-31, 01:36:00,VALID,919.087,VALID,0,VALID,96.2249,VALID,-0.0169808,VALID,18.6795,VALID,354,VALID,0,
2002-12-31, 01:37:00,VALID,919.091,VALID,0,VALID,96.3851,VALID,0,VALID,18.7049,VALID,354,VALID,0,
2002-12-31, 01:38:00,VALID,919.077,VALID,0,VALID,95.9604,VALID,0,VALID,18.7079,VALID,354,VALID,0,
2002-12-31, 01:39:00,VALID,919.054,VALID,0,VALID,95.5204,VALID,0,VALID,18.6733,VALID,354,VALID,0,
2002-12-31, 01:40:00,VALID,919.034,VALID,0,VALID,95.673,VALID,0,VALID,18.6207,VALID,354,VALID,0,
2002-12-31, 01:41:00,VALID,919.024,VALID,0,VALID,95.6717,VALID,-0.0169808,VALID,18.5918,VALID,354,VALID,0,
2002-12-31, 01:42:00,VALID,919.012,VALID,0,VALID,95.5776,VALID,-0.0169808,VALID,18.5533,VALID,354,VALID,0,
2002-12-31, 01:43:00,VALID,919.01,VALID,0,VALID,95.865,VALID,0.0169808,VALID,18.5369,VALID,354,VALID,0,
2002-12-31, 01:44:00,VALID,919.002,VALID,0,VALID,96.057,VALID,0,VALID,18.5434,VALID,354,VALID,0.0124199,
2002-12-31, 01:45:00,VALID,918.993,VALID,0,VALID,95.7925,VALID,0,VALID,18.5207,VALID,354,VALID,0.0849095,
2002-12-31, 01:46:00,VALID,918.99,VALID,0,VALID,95.5929,VALID,0,VALID,18.4464,VALID,354,VALID,0,
2002-12-31, 01:47:00,VALID,918.961,VALID,0,VALID,95.79,VALID,0,VALID,18.4178,VALID,354,VALID,0.0182292,
2002-12-31, 01:48:00,VALID,918.934,VALID,0,VALID,95.9019,VALID,0,VALID,18.379,VALID,10,VALID,0.42103,
2002-12-31, 01:49:00,VALID,918.895,VALID,0,VALID,96.1689,VALID,0,VALID,18.3463,VALID,28,VALID,0.437294,
2002-12-31, 01:50:00,VALID,918.885,VALID,0,VALID,96.1422,VALID,0,VALID,18.3174,VALID,28,VALID,0.310238,
2002-12-31, 01:51:00,VALID,918.862,VALID,0,VALID,96.3876,VALID,0,VALID,18.2814,VALID,28,VALID,0.182492,
2002-12-31, 01:52:00,VALID,918.869,VALID,0,VALID,96.6648,VALID,0,VALID,18.3142,VALID,28,VALID,0.0657895,
2002-12-31, 01:53:00,VALID,918.865,VALID,0,VALID,96.9497,VALID,-0.0169808,VALID,18.3467,VALID,28,VALID,0.0170641,
2002-12-31, 01:54:00,VALID,918.881,VALID,0,VALID,97.1213,VALID,0,VALID,18.3726,VALID,28,VALID,0.000892857,
2002-12-31, 01:55:00,VALID,918.868,VALID,0,VALID,97.3998,VALID,-0.0169808,VALID,18.4273,VALID,28,VALID,0.126803,
2002-12-31, 01:56:00,VALID,918.867,VALID,0,VALID,97.2943,VALID,0.0169808,VALID,18.4663,VALID,28,VALID,0.174137,
2002-12-31, 01:57:00,VALID,918.867,VALID,0,VALID,97.148,VALID,0.0169808,VALID,18.4787,VALID,28,VALID,0,
2002-12-31, 01:58:00,VALID,918.856,VALID,0,VALID,97.1976,VALID,0,VALID,18.5117,VALID,28,VALID,0.432977,
2002-12-31, 01:59:00,VALID,918.828,VALID,0,VALID,97.2231,VALID,-0.0169808,VALID,18.5307,VALID,28,VALID,0.455469,
2002-12-31, 02:00:00,VALID,918.826,VALID,0,VALID,97.0984,VALID,-0.0169808,VALID,18.5632,VALID,28,VALID,0.254102,
2002-12-31, 02:01:00,VALID,918.842,VALID,0,VALID,96.7564,VALID,0,VALID,18.5533,VALID,28,VALID,0.325921,
2002-12-31, 02:02:00,VALID,918.845,VALID,0,VALID,96.8136,VALID,0,VALID,18.5461,VALID,28,VALID,0.35957,
2002-12-31, 02:03:00,VALID,918.837,VALID,0,VALID,96.7043,VALID,0,VALID,18.5496,VALID,28,VALID,0.432031,
2002-12-31, 02:04:00,VALID,918.824,VALID,0,VALID,96.4576,VALID,0,VALID,18.5207,VALID,28,VALID,0.351774,
2002-12-31, 02:05:00,VALID,918.801,VALID,0,VALID,96.6712,VALID,0,VALID,18.5207,VALID,28,VALID,0.368454,
2002-12-31, 02:06:00,VALID,918.797,VALID,0,VALID,96.9039,VALID,0,VALID,18.5463,VALID,28,VALID,0.251367,
2002-12-31, 02:07:00,VALID,918.765,VALID,0,VALID,96.8886,VALID,0,VALID,18.5757,VALID,28,VALID,0.0522321,
2002-12-31, 02:08:00,VALID,918.759,VALID,0,VALID,97.0361,VALID,0,VALID,18.601,VALID,28,VALID,0.194727,
2002-12-31, 02:09:00,VALID,918.759,VALID,0,VALID,96.8225,VALID,-0.0169808,VALID,18.6338,VALID,28,VALID,0.44972,
2002-12-31, 02:10:00,VALID,918.767,VALID,0,VALID,95.9616,VALID,0,VALID,18.5466,VALID,28,VALID,0.364926,
2002-12-31, 02:11:00,VALID,918.76,VALID,0,VALID,95.5903,VALID,0,VALID,18.4531,VALID,22,VALID,0.548109,
2002-12-31, 02:12:00,VALID,918.761,VALID,0,VALID,95.9922,VALID,-0.0169808,VALID,18.4107,VALID,18,VALID,0.501202,
2002-12-31, 02:13:00,VALID,918.761,VALID,0,VALID,96.2783,VALID,0,VALID,18.391,VALID,12,VALID,0.419727,
2002-12-31, 02:14:00,VALID,918.742,VALID,0,VALID,97.0756,VALID,0,VALID,18.4626,VALID,4,VALID,0.475123,
2002-12-31, 02:15:00,VALID,918.723,VALID,0,VALID,97.438,VALID,-0.0169808,VALID,18.5397,VALID,5,VALID,0.772035,
2002-12-31, 02:16:00,VALID,918.693,VALID,0,VALID,97.1048,VALID,0,VALID,18.5759,VALID,22,VALID,0.724359,
2002-12-31, 02:17:00,VALID,918.698,VALID,0,VALID,97.1366,VALID,-0.0169808,VALID,18.5817,VALID,21,VALID,0.27766,
2002-12-31, 02:18:00,VALID,918.706,VALID,0,VALID,97.2447,VALID,0,VALID,18.643,VALID,23,VALID,0.0853041,
2002-12-31, 02:19:00,VALID,918.718,VALID,0,VALID,97.2142,VALID,-0.0169808,VALID,18.689,VALID,22,VALID,0.161914,
2002-12-31, 02:20:00,VALID,918.716,VALID,0,VALID,97.2828,VALID,0,VALID,18.7596,VALID,4,VALID,0.548713,
2002-12-31, 02:21:00,VALID,918.727,VALID,0,VALID,96.9967,VALID,0,VALID,18.8108,VALID,13,VALID,0.572368,
2002-12-31, 02:22:00,VALID,918.736,VALID,0,VALID,96.7259,VALID,0,VALID,18.8627,VALID,358,VALID,0.664063,
2002-12-31, 02:23:00,VALID,918.746,VALID,0,VALID,96.7678,VALID,0,VALID,18.9274,VALID,351,VALID,0.685497,
2002-12-31, 02:24:00,VALID,918.737,VALID,0,VALID,96.7488,VALID,-0.0169808,VALID,19.0407,VALID,342,VALID,0.597656,
2002-12-31, 02:25:00,VALID,918.721,VALID,0,VALID,96.5084,VALID,0,VALID,19.1215,VALID,12,VALID,1.05431,
2002-12-31, 02:26:00,VALID,918.695,VALID,0,VALID,95.926,VALID,0.0169808,VALID,19.2023,VALID,11,VALID,1.12981,
2002-12-31, 02:27:00,VALID,918.695,VALID,0,VALID,95.1682,VALID,-0.0339617,VALID,19.2376,VALID,8,VALID,0.706503,
2002-12-31, 02:28:00,VALID,918.705,VALID,0,VALID,95.1109,VALID,0,VALID,19.2542,VALID,333,VALID,0.753289,
2002-12-31, 02:29:00,VALID,918.705,VALID,0,VALID,95.4708,VALID,-0.0169808,VALID,19.3832,VALID,315,VALID,0.882196,
2002-12-31, 02:30:00,VALID,918.713,VALID,0,VALID,95.083,VALID,0.0169808,VALID,19.5028,VALID,309,VALID,0.433694,
2002-12-31, 02:31:00,VALID,918.704,VALID,0,VALID,94.629,VALID,-0.0509425,VALID,19.5578,VALID,325,VALID,0.215049,
2002-12-31, 02:32:00,VALID,918.689,VALID,0,VALID,93.7096,VALID,0,VALID,19.5478,VALID,12,VALID,0.89741,
2002-12-31, 02:33:00,VALID,918.669,VALID,0,VALID,93.9716,VALID,0,VALID,19.5249,VALID,3,VALID,0.791071,
2002-12-31, 02:34:00,VALID,918.674,VALID,0,VALID,93.8101,VALID,-0.0339617,VALID,19.5505,VALID,19,VALID,0.372596,
2002-12-31, 02:35:00,VALID,918.667,VALID,0,VALID,93.6613,VALID,-0.0339617,VALID,19.5441,VALID,350,VALID,0.515008,
2002-12-31, 02:36:00,VALID,918.665,VALID,0,VALID,93.852,VALID,0,VALID,19.5349,VALID,327,VALID,0.202474,
2002-12-31, 02:37:00,VALID,918.639,VALID,0,VALID,93.674,VALID,0,VALID,19.5384,VALID,359,VALID,0.51398,
2002-12-31, 02:38:00,VALID,918.622,VALID,0,VALID,93.9144,VALID,-0.0169808,VALID,19.5155,VALID,16,VALID,1.2377,
2002-12-31, 02:39:00,VALID,918.621,VALID,0,VALID,93.6956,VALID,0,VALID,19.5344,VALID,16,VALID,0.759375,
2002-12-31, 02:40:00,VALID,918.609,VALID,0,VALID,93.6321,VALID,0,VALID,19.5317,VALID,20,VALID,0.176082,
2002-12-31, 02:41:00,VALID,918.588,VALID,0,VALID,94.0097,VALID,0,VALID,19.551,VALID,355,VALID,0.129492,
2002-12-31, 02:42:00,VALID,918.568,VALID,0,VALID,93.8762,VALID,0.0169808,VALID,19.5799,VALID,343,VALID,0.0367187,
2002-12-31, 02:43:00,VALID,918.554,VALID,0,VALID,93.7173,VALID,0,VALID,19.5796,VALID,345,VALID,0,
2002-12-31, 02:44:00,VALID,918.548,VALID,0,VALID,93.3053,VALID,0,VALID,19.5374,VALID,24,VALID,0.48902,
2002-12-31, 02:45:00,VALID,918.534,VALID,0,VALID,93.5011,VALID,0.0339617,VALID,19.5058,VALID,342,VALID,0.372852,
2002-12-31, 02:46:00,VALID,918.54,VALID,0,VALID,93.9741,VALID,0,VALID,19.5021,VALID,358,VALID,0.5625,
2002-12-31, 02:47:00,VALID,918.533,VALID,0,VALID,93.8025,VALID,0,VALID,19.4991,VALID,21,VALID,0.711914,
2002-12-31, 02:48:00,VALID,918.501,VALID,0,VALID,93.9322,VALID,0.0169808,VALID,19.4571,VALID,34,VALID,0.674479,
2002-12-31, 02:49:00,VALID,918.516,VALID,0,VALID,93.9818,VALID,0,VALID,19.4474,VALID,3,VALID,0.419613,
2002-12-31, 02:50:00,VALID,918.538,VALID,0,VALID,94.3798,VALID,0.0169808,VALID,19.4248,VALID,353,VALID,0.351974,
2002-12-31, 02:51:00,VALID,918.534,VALID,0,VALID,94.2221,VALID,0.0169808,VALID,19.4178,VALID,21,VALID,0.84395,
2002-12-31, 02:52:00,VALID,918.505,VALID,0,VALID,94.4522,VALID,0,VALID,19.3827,VALID,21,VALID,1.8125,
2002-12-31, 02:53:00,VALID,918.475,VALID,0,VALID,94.54,VALID,0,VALID,19.4183,VALID,24,VALID,1.52925,
2002-12-31, 02:54:00,VALID,918.457,VALID,0,VALID,94.6354,VALID,0,VALID,19.4407,VALID,25,VALID,1.11839,
2002-12-31, 02:55:00,VALID,918.447,VALID,0,VALID,94.6481,VALID,0,VALID,19.4864,VALID,32,VALID,0.898438,
2002-12-31, 02:56:00,VALID,918.44,VALID,0,VALID,94.3607,VALID,-0.0169808,VALID,19.5058,VALID,50,VALID,0.642314,
2002-12-31, 02:57:00,VALID,918.435,VALID,0,VALID,94.0975,VALID,0,VALID,19.4891,VALID,21,VALID,0.761191,
2002-12-31, 02:58:00,VALID,918.435,VALID,0,VALID,94.1254,VALID,0,VALID,19.5021,VALID,3,VALID,0.616992,
2002-12-31, 02:59:00,VALID,918.445,VALID,0,VALID,94.4675,VALID,0,VALID,19.5505,VALID,333,VALID,0.701746,
2002-12-31, 03:00:00,VALID,918.443,VALID,0,VALID,94.3759,VALID,-0.0169808,VALID,19.5829,VALID,333,VALID,0.166735,
2002-12-31, 03:01:00,VALID,918.431,VALID,0,VALID,94.3353,VALID,0,VALID,19.609,VALID,356,VALID,0.521234,
2002-12-31, 03:02:00,VALID,918.458,VALID,0,VALID,94.0593,VALID,0,VALID,19.6152,VALID,8,VALID,0.0194311,
2002-12-31, 03:03:00,VALID,918.439,VALID,0,VALID,93.641,VALID,0,VALID,19.5893,VALID,8,VALID,0,
2002-12-31, 03:04:00,VALID,918.427,VALID,0,VALID,93.3447,VALID,0.0169808,VALID,19.5215,VALID,8,VALID,0.225038,
2002-12-31, 03:05:00,VALID,918.4,VALID,0,VALID,93.6028,VALID,0,VALID,19.4862,VALID,18,VALID,0.542869,
2002-12-31, 03:06:00,VALID,918.384,VALID,0,VALID,93.6816,VALID,0,VALID,19.421,VALID,22,VALID,0.147804,
2002-12-31, 03:07:00,VALID,918.395,VALID,0,VALID,94.1153,VALID,0,VALID,19.4061,VALID,22,VALID,0,
2002-12-31, 03:08:00,VALID,918.419,VALID,0,VALID,94.4497,VALID,-0.0169808,VALID,19.3852,VALID,21,VALID,0.0141859,
2002-12-31, 03:09:00,VALID,918.423,VALID,0,VALID,94.8655,VALID,0,VALID,19.3982,VALID,259,VALID,0.201322,
2002-12-31, 03:10:00,VALID,918.407,VALID,0,VALID,94.1026,VALID,0.0339617,VALID,19.3947,VALID,4,VALID,0.355674,
2002-12-31, 03:11:00,VALID,918.409,VALID,0,VALID,93.4578,VALID,-0.0169808,VALID,19.2858,VALID,37,VALID,0.346628,
2002-12-31, 03:12:00,VALID,918.406,VALID,0,VALID,94.1623,VALID,0.0169808,VALID,19.2334,VALID,35,VALID,0.368304,
2002-12-31, 03:13:00,VALID,918.405,VALID,0,VALID,94.6671,VALID,0.0169808,VALID,19.2306,VALID,35,VALID,0.25621,
2002-12-31, 03:14:00,VALID,918.417,VALID,0,VALID,94.5235,VALID,0,VALID,19.1822,VALID,29,VALID,0.152344,
2002-12-31, 03:15:00,VALID,918.41,VALID,0,VALID,94.3747,VALID,0.0169808,VALID,19.1009,VALID,24,VALID,0.602214,
2002-12-31, 03:16:00,VALID,918.404,VALID,0,VALID,94.9164,VALID,0,VALID,19.082,VALID,15,VALID,0.651316,
2002-12-31, 03:17:00,VALID,918.388,VALID,0,VALID,94.6493,VALID,0.0339617,VALID,19.0049,VALID,26,VALID,0.90332,
2002-12-31, 03:18:00,VALID,918.388,VALID,0,VALID,95.2864,VALID,0,VALID,18.9622,VALID,11,VALID,0.808398,
2002-12-31, 03:19:00,VALID,918.375,VALID,0,VALID,95.6603,VALID,0.0169808,VALID,18.9624,VALID,8,VALID,0.41887,
2002-12-31, 03:20:00,VALID,918.362,VALID,0,VALID,95.9108,VALID,0.0169808,VALID,18.9749,VALID,7,VALID,0.113281,
2002-12-31, 03:21:00,VALID,918.332,VALID,0,VALID,96.1422,VALID,-0.0169808,VALID,19.0141,VALID,349,VALID,0.121875,
2002-12-31, 03:22:00,VALID,918.316,VALID,0,VALID,96.2121,VALID,0.0169808,VALID,19.0559,VALID,19,VALID,0.304688,
2002-12-31, 03:23:00,VALID,918.283,VALID,0,VALID,95.7505,VALID,0,VALID,19.0233,VALID,48,VALID,0.188767,
2002-12-31, 03:24:00,VALID,918.275,VALID,0,VALID,95.9769,VALID,0,VALID,19.0271,VALID,6,VALID,0.698438,
2002-12-31, 03:25:00,VALID,918.258,VALID,0,VALID,95.7823,VALID,0.0339617,VALID,19.0201,VALID,17,VALID,0.581027,
2002-12-31, 03:26:00,VALID,918.244,VALID,0,VALID,95.7556,VALID,0,VALID,19.0107,VALID,16,VALID,0.461914,
2002-12-31, 03:27:00,VALID,918.235,VALID,0,VALID,95.7874,VALID,0,VALID,19.0104,VALID,16,VALID,0.134215,
2002-12-31, 03:28:00,VALID,918.199,VALID,0,VALID,95.7162,VALID,0,VALID,18.9878,VALID,16,VALID,0.379112,
2002-12-31, 03:29:00,VALID,918.189,VALID,0,VALID,95.4708,VALID,0,VALID,18.9562,VALID,17,VALID,0.513775,
2002-12-31, 03:30:00,VALID,918.175,VALID,0,VALID,95.2076,VALID,0.0169808,VALID,18.8754,VALID,31,VALID,0.725962,
2002-12-31, 03:31:00,VALID,918.145,VALID,0,VALID,95.35,VALID,-0.0169808,VALID,18.8143,VALID,32,VALID,0.642187,
2002-12-31, 03:32:00,VALID,918.13,VALID,0,VALID,95.8421,VALID,-0.0169808,VALID,18.8014,VALID,23,VALID,0.730674,
2002-12-31, 03:33:00,VALID,918.131,VALID,0,VALID,95.9833,VALID,0.0169808,VALID,18.781,VALID,22,VALID,0.401442,
2002-12-31, 03:34:00,VALID,918.134,VALID,0,VALID,96.1028,VALID,-0.0339617,VALID,18.7783,VALID,12,VALID,0.185096,
2002-12-31, 03:35:00,VALID,918.112,VALID,0,VALID,96.6165,VALID,-0.0169808,VALID,18.8598,VALID,337,VALID,0.39147,
2002-12-31, 03:36:00,VALID,918.099,VALID,0,VALID,96.5313,VALID,0,VALID,18.8496,VALID,347,VALID,0.403294,
2002-12-31, 03:37:00,VALID,918.088,VALID,0,VALID,96.8899,VALID,0.0169808,VALID,18.9306,VALID,355,VALID,0.368945,
2002-12-31, 03:38:00,VALID,918.094,VALID,0,VALID,96.7488,VALID,0,VALID,18.9599,VALID,356,VALID,0.0415901,
2002-12-31, 03:39:00,VALID,918.082,VALID,0,VALID,96.7666,VALID,-0.0169808,VALID,18.9883,VALID,356,VALID,0,